| time (UTC) | temp F | wind direction | speed knots | gust knots | rain 1hr in | rain 24hr in | rain mn in | humidity % | barometer mb |
| 20260505064807 | 53 | 111 | 0.9 | 2.6 | 0.05 | 0.93 | 0.93 | 93 | 1015.1 |
| 20260505063803 | 54 | 119 | 0.9 | 3.5 | 0.08 | 0.93 | 0.93 | 93 | 1015.2 |
| 20260505062819 | 54 | 47 | 0.9 | 2.6 | 0.09 | 0.92 | 0.92 | 93 | 1015.4 |
| 20260505061819 | 54 | 110 | 0.9 | 3.5 | 0.10 | 0.91 | 0.91 | 93 | 1015.2 |
| 20260505060814 | 54 | 85 | 0.0 | 1.7 | 0.11 | 0.91 | 0.91 | 93 | 1015.1 |
| 20260505055802 | 54 | 155 | 0.0 | 0.0 | 0.10 | 0.90 | 0.90 | 93 | 1015.0 |
| 20260505054841 | 54 | 152 | 0.0 | 1.7 | 0.08 | 0.88 | 0.88 | 93 | 1015.0 |
| 20260505053813 | 54 | 110 | 0.0 | 1.7 | 0.05 | 0.85 | 0.85 | 93 | 1015.3 |
| 20260505052809 | 54 | 87 | 0.0 | 0.0 | 0.03 | 0.83 | 0.83 | 93 | 1015.3 |
| 20260505051809 | 54 | 82 | 0.0 | 1.7 | 0.04 | 0.81 | 0.81 | 93 | 1015.1 |
| 20260505050826 | 54 | 99 | 0.0 | 3.5 | 0.06 | 0.80 | 0.80 | 92 | 1015.2 |
| 20260505040805 | 54 | 69 | 0.0 | 2.6 | 0.26 | 0.74 | 0.74 | 92 | 1015.2 |
| 20260505035816 | 54 | 64 | 1.7 | 5.2 | 0.23 | 0.68 | 0.68 | 92 | 1015.4 |
| 20260505034813 | 54 | 51 | 0.0 | 1.7 | 0.18 | 0.62 | 0.62 | 92 | 1015.3 |
| 20260505033813 | 54 | 37 | 0.0 | 0.9 | 0.16 | 0.58 | 0.58 | 92 | 1015.2 |
| 20260505032807 | 54 | 29 | 0.0 | 2.6 | 0.13 | 0.54 | 0.54 | 92 | 1015.1 |
| 20260505031828 | 54 | 48 | 0.9 | 4.3 | 0.11 | 0.51 | 0.51 | 92 | 1015.1 |
| 20260505030804 | 54 | 6 | 2.6 | 5.2 | 0.09 | 0.48 | 0.48 | 92 | 1015.4 |
| 20260505025820 | 54 | 18 | 2.6 | 6.1 | 0.08 | 0.45 | 0.45 | 92 | 1015.4 |
| 20260505024815 | 54 | 38 | 2.6 | 4.3 | 0.09 | 0.44 | 0.44 | 91 | 1015.2 |
| 20260505023835 | 54 | 52 | 1.7 | 6.1 | 0.08 | 0.42 | 0.42 | 91 | 1014.9 |
| 20260505022809 | 54 | 110 | 3.5 | 7.0 | 0.09 | 0.41 | 0.41 | 91 | 1014.6 |
| 20260505021806 | 54 | 111 | 4.3 | 7.0 | 0.10 | 0.40 | 0.40 | 91 | 1014.2 |
| 20260505020838 | 54 | 73 | 2.6 | 4.3 | 0.11 | 0.39 | 0.39 | 91 | 1014.3 |
| 20260505015815 | 54 | 82 | 0.9 | 2.6 | 0.09 | 0.37 | 0.37 | 91 | 1014.6 |
| 20260505014837 | 54 | 71 | 1.7 | 4.3 | 0.08 | 0.35 | 0.35 | 91 | 1014.6 |
| 20260505013807 | 54 | 112 | 0.9 | 3.5 | 0.08 | 0.34 | 0.34 | 91 | 1014.7 |
| 20260505012803 | 55 | 97 | 2.6 | 4.3 | 0.07 | 0.32 | 0.32 | 90 | 1014.5 |
| 20260505011803 | 55 | 111 | 1.7 | 3.5 | 0.05 | 0.29 | 0.29 | 90 | 1014.4 |
| 20260505010818 | 55 | 106 | 0.9 | 2.6 | 0.04 | 0.28 | 0.28 | 90 | 1014.4 |
| 20260505005820 | 55 | 97 | 0.9 | 3.5 | 0.04 | 0.28 | 0.28 | 90 | 1014.6 |
| 20260505004837 | 55 | 114 | 0.9 | 2.6 | 0.07 | 0.27 | 0.27 | 90 | 1014.9 |
| 20260505003813 | 55 | 105 | 0.9 | 4.3 | 0.08 | 0.26 | 0.26 | 90 | 1015.2 |
| 20260505002816 | 55 | 120 | 0.9 | 4.3 | 0.08 | 0.25 | 0.25 | 90 | 1015.2 |
| 20260505001819 | 55 | 105 | 2.6 | 7.8 | 0.08 | 0.24 | 0.24 | 90 | 1015.0 |
| 20260505000817 | 56 | 91 | 2.6 | 7.0 | 0.09 | 0.24 | 0.24 | 90 | 1015.0 |
| 20260504235815 | 56 | 69 | 2.6 | 6.1 | 0.10 | 0.23 | 0.23 | 90 | 1015.2 |
| 20260504234816 | 57 | 102 | 2.6 | 4.3 | 0.09 | 0.20 | 0.20 | 90 | 1015.2 |
| 20260504233833 | 56 | 109 | 0.9 | 4.3 | 0.08 | 0.18 | 0.18 | 90 | 1015.1 |
| 20260504232812 | 56 | 96 | 1.7 | 4.3 | 0.08 | 0.17 | 0.17 | 90 | 1015.0 |
| 20260504231811 | 56 | 80 | 2.6 | 5.2 | 0.08 | 0.16 | 0.16 | 89 | 1015.1 |
| 20260504230809 | 57 | 99 | 3.5 | 6.1 | 0.08 | 0.15 | 0.15 | 89 | 1015.2 |
| 20260504225827 | 57 | 96 | 3.5 | 6.1 | 0.06 | 0.13 | 0.13 | 88 | 1015.1 |
| 20260504224807 | 57 | 116 | 1.7 | 4.3 | 0.05 | 0.11 | 0.11 | 88 | 1015.2 |
| 20260504223802 | 57 | 126 | 1.7 | 6.1 | 0.05 | 0.10 | 0.10 | 87 | 1015.2 |
| 20260504222820 | 57 | 142 | 3.5 | 6.1 | 0.04 | 0.09 | 0.09 | 86 | 1015.2 |
| 20260504221819 | 57 | 102 | 3.5 | 6.1 | 0.04 | 0.08 | 0.08 | 86 | 1015.3 |
| 20260504220833 | 58 | 104 | 2.6 | 6.1 | 0.03 | 0.07 | 0.07 | 86 | 1015.4 |
| 20260504215833 | 58 | 122 | 3.5 | 6.1 | 0.02 | 0.06 | 0.07 | 85 | 1015.3 |
| 20260504214809 | 58 | 110 | 2.6 | 5.2 | 0.02 | 0.06 | 0.06 | 83 | 1015.4 |
| 20260504213806 | 58 | 128 | 2.6 | 5.2 | 0.01 | 0.05 | 0.05 | 82 | 1015.3 |
| 20260504212805 | 59 | 93 | 1.7 | 6.1 | 0.01 | 0.05 | 0.05 | 81 | 1015.5 |
| 20260504211806 | 59 | 174 | 2.6 | 5.2 | 0.00 | 0.04 | 0.04 | 81 | 1015.4 |
| 20260504210805 | 59 | 124 | 1.7 | 6.1 | 0.00 | 0.04 | 0.04 | 81 | 1015.6 |
| 20260504205808 | 59 | 182 | 1.7 | 6.1 | 0.00 | 0.04 | 0.04 | 81 | 1015.4 |
| 20260504204810 | 59 | 174 | 1.7 | 3.5 | 0.00 | 0.04 | 0.04 | 83 | 1015.3 |
| 20260504203807 | 59 | 149 | 3.5 | 7.0 | 0.01 | 0.04 | 0.04 | 81 | 1015.5 |
| 20260504202808 | 59 | 153 | 4.3 | 6.1 | 0.01 | 0.04 | 0.04 | 83 | 1015.2 |
| 20260504201809 | 59 | 152 | 2.6 | 6.1 | 0.01 | 0.04 | 0.04 | 83 | 1015.4 |
| 20260504200804 | 59 | 134 | 0.0 | 2.6 | 0.01 | 0.04 | 0.04 | 83 | 1015.2 |
| 20260504195803 | 58 | 181 | 0.9 | 3.5 | 0.01 | 0.04 | 0.04 | 82 | 1015.3 |
| 20260504194807 | 58 | 249 | 0.0 | 3.5 | 0.01 | 0.04 | 0.04 | 81 | 1015.4 |
| 20260504193810 | 58 | 138 | 1.7 | 5.2 | 0.00 | 0.03 | 0.03 | 81 | 1015.6 |
| 20260504192802 | 58 | 140 | 0.9 | 5.2 | 0.00 | 0.03 | 0.03 | 81 | 1015.6 |
| 20260504191826 | 58 | 151 | 2.6 | 7.0 | 0.00 | 0.03 | 0.03 | 83 | 1015.5 |
| 20260504190805 | 58 | 218 | 2.6 | 4.3 | 0.00 | 0.03 | 0.03 | 84 | 1015.4 |
| 20260504185802 | 57 | 195 | 0.9 | 7.8 | 0.00 | 0.03 | 0.03 | 84 | 1015.5 |
| 20260504184805 | 57 | 232 | 2.6 | 7.8 | 0.01 | 0.03 | 0.03 | 84 | 1015.6 |
| 20260504183806 | 57 | 158 | 2.6 | 8.7 | 0.02 | 0.03 | 0.03 | 84 | 1015.7 |
| 20260504182813 | 57 | 168 | 2.6 | 7.8 | 0.03 | 0.03 | 0.03 | 85 | 1015.7 |
| 20260504181813 | 57 | 141 | 1.7 | 3.5 | 0.03 | 0.03 | 0.03 | 86 | 1015.8 |
| 20260504180813 | 57 | 142 | 1.7 | 3.5 | 0.03 | 0.03 | 0.03 | 86 | 1015.8 |
| 20260504175831 | 56 | 150 | 2.6 | 7.8 | 0.03 | 0.03 | 0.03 | 85 | 1015.6 |
| 20260504174831 | 57 | 170 | 2.6 | 6.1 | 0.02 | 0.02 | 0.02 | 83 | 1015.4 |
| 20260504173815 | 57 | 186 | 2.6 | 7.0 | 0.01 | 0.01 | 0.01 | 82 | 1015.3 |
| 20260504172808 | 57 | 157 | 3.5 | 8.7 | 0.00 | 0.00 | 0.00 | 81 | 1015.2 |
| 20260504171826 | 57 | 163 | 2.6 | 8.7 | 0.00 | 0.00 | 0.00 | 79 | 1015.2 |
| 20260504170818 | 57 | 184 | 2.6 | 7.8 | 0.00 | 0.00 | 0.00 | 79 | 1015.2 |
| 20260504150817 | 56 | 120 | 4.3 | 7.8 | 0.00 | 0.00 | 0.00 | 82 | 1014.8 |
| 20260504140815 | 55 | 107 | 3.5 | 6.1 | 0.00 | 0.00 | 0.00 | 85 | 1014.7 |
| 20260504130813 | 55 | 154 | 3.5 | 7.8 | 0.00 | 0.00 | 0.00 | 84 | 1014.3 |
| 20260504081812 | 55 | 189 | 2.6 | 5.2 | 0.00 | 0.00 | 0.00 | 80 | 1014.1 |
| 20260504080816 | 55 | 126 | 2.6 | 5.2 | 0.00 | 0.00 | 0.00 | 80 | 1014.3 |